timestamp,wind_dir_avg,wind_spd_avg,wind_spd_max_dir,wind_spd_gust,battery_voltage,lat,long
2024-02-06 00:04:00+00:00,28.0,14.12,30.0,16.07,12.25,47.59359,-54.27349
2024-02-06 00:14:00+00:00,31.0,14.2,29.0,15.37,12.25,47.59359,-54.27349
2024-02-06 00:24:00+00:00,32.0,14.08,33.0,16.7,12.25,47.59359,-54.27349
2024-02-06 00:34:00+00:00,33.0,13.94,33.0,15.49,12.25,47.59359,-54.27349
2024-02-06 00:44:00+00:00,35.0,13.54,35.0,15.65,12.25,47.59359,-54.27349
2024-02-06 00:54:00+00:00,36.0,13.56,38.0,15.04,12.25,47.59359,-54.27349
2024-02-06 01:04:00+00:00,28.0,14.85,26.0,16.72,12.25,47.59359,-54.27349
2024-02-06 01:14:00+00:00,33.0,14.41,31.0,15.81,12.17,47.59359,-54.27349
2024-02-06 01:24:00+00:00,38.0,13.79,40.0,14.9,12.17,47.59359,-54.27349
2024-02-06 01:34:00+00:00,35.0,14.61,31.0,16.73,12.17,47.59359,-54.27349
2024-02-06 01:44:00+00:00,34.0,14.62,32.0,16.75,12.17,47.59359,-54.27349
2024-02-06 01:54:00+00:00,35.0,14.38,27.0,16.12,12.17,47.59359,-54.27349
2024-02-06 02:04:00+00:00,35.0,14.76,27.0,16.4,12.17,47.59359,-54.27349
2024-02-06 02:14:00+00:00,34.0,13.92,34.0,17.13,12.17,47.59359,-54.27349
2024-02-06 02:24:00+00:00,38.0,13.95,38.0,15.13,12.17,47.59359,-54.27349
2024-02-06 02:34:00+00:00,31.0,14.37,30.0,16.14,12.17,47.59359,-54.27349
2024-02-06 02:44:00+00:00,33.0,14.0,28.0,16.19,12.17,47.59359,-54.27349
2024-02-06 02:54:00+00:00,31.0,14.11,28.0,16.09,12.17,47.59359,-54.27349
2024-02-06 03:04:00+00:00,30.0,14.16,41.0,18.45,12.17,47.59359,-54.27349
2024-02-06 03:14:01+00:00,31.0,13.99,42.0,17.3,12.17,47.59359,-54.27349
2024-02-06 03:24:01+00:00,28.0,14.89,34.0,18.86,12.17,47.59359,-54.27349
2024-02-06 03:34:01+00:00,31.0,13.72,27.0,15.89,12.17,47.59359,-54.27349
2024-02-06 03:44:01+00:00,26.0,15.07,20.0,18.52,12.17,47.59359,-54.27349
2024-02-06 03:54:01+00:00,32.0,15.57,52.0,21.94,12.17,47.59359,-54.27349
2024-02-06 04:04:01+00:00,34.0,15.29,52.0,20.63,12.17,47.59359,-54.27349
2024-02-06 04:14:00+00:00,29.0,14.25,37.0,17.41,12.17,47.59359,-54.27349
2024-02-06 04:24:00+00:00,31.0,16.4,45.0,23.62,12.17,47.59359,-54.27349
2024-02-06 04:34:00+00:00,30.0,14.26,29.0,16.57,12.17,47.59359,-54.27349
2024-02-06 04:44:00+00:00,26.0,15.08,30.0,17.68,12.17,47.59359,-54.27349
2024-02-06 04:54:00+00:00,26.0,15.27,21.0,18.07,12.17,47.59359,-54.27349
2024-02-06 05:04:00+00:00,28.0,14.7,28.0,16.33,12.17,47.59359,-54.27349
2024-02-06 05:14:01+00:00,31.0,15.32,26.0,17.58,12.17,47.59359,-54.27349
2024-02-06 05:24:01+00:00,26.0,15.54,31.0,18.03,12.17,47.59359,-54.27349
2024-02-06 05:34:01+00:00,27.0,15.07,28.0,16.49,12.17,47.59359,-54.27349
2024-02-06 05:44:01+00:00,28.0,14.96,27.0,16.73,12.17,47.59359,-54.27349
2024-02-06 05:54:01+00:00,35.0,14.46,32.0,16.42,12.17,47.59359,-54.27349
2024-02-06 06:04:01+00:00,32.0,15.09,30.0,18.2,12.17,47.59359,-54.27349
2024-02-06 06:14:00+00:00,29.0,14.87,31.0,16.72,12.17,47.59359,-54.27349
2024-02-06 06:24:00+00:00,28.0,15.57,38.0,20.49,12.17,47.59359,-54.27349
2024-02-06 06:34:00+00:00,27.0,15.72,36.0,19.63,12.17,47.59359,-54.27349
2024-02-06 06:44:00+00:00,26.0,15.82,35.0,19.33,12.17,47.59359,-54.27349
2024-02-06 06:54:00+00:00,28.0,14.39,34.0,17.23,12.17,47.59359,-54.27349
2024-02-06 07:04:00+00:00,30.0,16.02,42.0,22.14,12.17,47.59359,-54.27349
2024-02-06 07:14:00+00:00,28.0,15.99,41.0,20.8,12.09,47.59359,-54.27349
2024-02-06 07:24:00+00:00,23.0,17.77,38.0,21.18,12.09,47.59359,-54.27349
2024-02-06 07:34:00+00:00,28.0,16.65,39.0,21.9,12.09,47.59359,-54.27349
2024-02-06 07:44:00+00:00,26.0,15.95,26.0,18.55,12.09,47.59359,-54.27349
2024-02-06 07:54:00+00:00,28.0,15.48,33.0,18.99,12.09,47.59359,-54.27349
2024-02-06 08:04:00+00:00,29.0,15.15,45.0,21.21,12.09,47.59359,-54.27349
2024-02-06 08:14:00+00:00,26.0,16.28,32.0,21.15,12.09,47.59359,-54.27349
2024-02-06 08:24:00+00:00,25.0,15.58,29.0,18.09,12.09,47.59359,-54.27349
2024-02-06 08:34:00+00:00,27.0,16.56,41.0,19.77,12.09,47.59359,-54.27349
2024-02-06 08:44:00+00:00,25.0,17.36,22.0,20.65,12.09,47.59359,-54.27349
2024-02-06 08:54:00+00:00,26.0,16.62,22.0,18.51,12.09,47.59359,-54.27349
2024-02-06 09:04:00+00:00,24.0,17.4,25.0,20.37,12.09,47.59359,-54.27349
2024-02-06 09:14:00+00:00,27.0,16.43,37.0,20.12,12.09,47.59359,-54.27349
2024-02-06 09:24:00+00:00,26.0,18.51,29.0,21.92,12.09,47.59359,-54.27349
2024-02-06 09:34:00+00:00,27.0,16.91,34.0,20.44,12.09,47.59359,-54.27349
2024-02-06 09:44:00+00:00,24.0,17.55,34.0,21.49,12.09,47.59359,-54.27349
2024-02-06 09:54:00+00:00,28.0,18.08,35.0,23.29,12.09,47.59359,-54.27349
2024-02-06 10:04:00+00:00,26.0,18.84,41.0,23.9,12.09,47.59359,-54.27349
2024-02-06 10:14:00+00:00,28.0,17.92,33.0,22.15,12.09,47.59359,-54.27349
2024-02-06 10:24:00+00:00,25.0,16.5,33.0,19.64,12.09,47.59359,-54.27349
2024-02-06 10:34:00+00:00,30.0,19.53,36.0,25.58,12.09,47.59359,-54.27349
2024-02-06 10:44:00+00:00,28.0,17.97,40.0,23.45,12.09,47.59359,-54.27349
2024-02-06 10:54:00+00:00,25.0,16.84,24.0,20.59,12.09,47.59359,-54.27349
2024-02-06 11:04:00+00:00,25.0,17.2,19.0,23.03,12.09,47.59359,-54.27349
2024-02-06 11:14:00+00:00,26.0,16.36,23.0,19.88,12.01,47.59359,-54.27349
2024-02-06 11:24:00+00:00,27.0,17.89,34.0,23.45,12.01,47.59359,-54.27349
2024-02-06 11:34:00+00:00,25.0,16.58,25.0,19.55,12.01,47.59359,-54.27349
2024-02-06 11:44:00+00:00,24.0,16.59,22.0,19.88,12.01,47.59359,-54.27349
2024-02-06 11:54:00+00:00,26.0,19.11,38.0,25.72,12.01,47.59359,-54.27349
2024-02-06 12:04:00+00:00,23.0,18.46,39.0,23.79,12.01,47.59359,-54.27349
2024-02-06 12:14:00+00:00,25.0,18.16,34.0,22.48,12.17,47.59359,-54.27349
2024-02-06 12:24:00+00:00,23.0,19.27,28.0,24.41,12.17,47.59359,-54.27349
2024-02-06 12:34:00+00:00,23.0,17.92,21.0,21.83,12.17,47.59359,-54.27349
2024-02-06 12:44:00+00:00,23.0,19.41,36.0,24.71,12.17,47.59359,-54.27349
2024-02-06 12:54:00+00:00,24.0,18.04,24.0,21.04,12.17,47.59359,-54.27349
2024-02-06 13:04:00+00:00,24.0,18.61,31.0,23.69,12.17,47.59359,-54.27349
2024-02-06 13:14:00+00:00,25.0,17.49,42.0,23.36,12.49,47.59359,-54.27349
2024-02-06 13:24:00+00:00,23.0,17.68,21.0,21.18,12.49,47.59359,-54.27349
2024-02-06 13:34:00+00:00,22.0,18.43,22.0,21.19,12.49,47.59359,-54.27349
2024-02-06 13:44:00+00:00,22.0,17.89,11.0,31.65,12.49,47.59359,-54.27349
2024-02-06 13:54:00+00:00,24.0,17.58,28.0,20.39,12.49,47.59359,-54.27349
2024-02-06 14:04:00+00:00,24.0,18.09,29.0,22.24,12.49,47.59359,-54.27349
2024-02-06 14:14:00+00:00,25.0,17.23,35.0,22.38,12.73,47.59359,-54.27349
2024-02-06 14:24:00+00:00,20.0,19.52,19.0,22.14,12.73,47.59359,-54.27349
2024-02-06 14:34:00+00:00,24.0,17.3,22.0,20.7,12.73,47.59359,-54.27349
2024-02-06 14:44:00+00:00,21.0,18.93,33.0,23.72,12.73,47.59359,-54.27349
2024-02-06 14:54:00+00:00,23.0,16.84,27.0,20.61,12.73,47.59359,-54.27349
2024-02-06 15:04:00+00:00,25.0,16.78,26.0,19.44,12.73,47.59359,-54.27349
2024-02-06 15:14:00+00:00,29.0,16.16,25.0,19.7,13.29,47.59359,-54.27349
2024-02-06 15:24:00+00:00,22.0,18.11,18.0,21.95,13.29,47.59359,-54.27349
2024-02-06 15:34:00+00:00,20.0,21.22,20.0,25.51,13.29,47.59359,-54.27349
2024-02-06 15:44:00+00:00,23.0,17.09,22.0,19.79,13.29,47.59359,-54.27349
2024-02-06 15:54:00+00:00,23.0,17.82,29.0,20.97,13.29,47.59359,-54.27349
2024-02-06 16:04:00+00:00,26.0,16.5,28.0,19.51,13.29,47.59359,-54.27349
2024-02-06 16:14:00+00:00,25.0,18.16,31.0,22.38,13.37,47.59359,-54.27349
2024-02-06 16:24:00+00:00,25.0,16.97,21.0,20.48,13.37,47.59359,-54.27349
2024-02-06 16:34:00+00:00,27.0,16.62,29.0,20.6,13.37,47.59359,-54.27349
2024-02-06 16:44:00+00:00,30.0,15.21,47.0,20.21,13.37,47.59359,-54.27349
2024-02-06 16:54:00+00:00,28.0,16.16,28.0,18.48,13.37,47.59359,-54.27349
2024-02-06 17:04:00+00:00,27.0,16.39,28.0,19.67,13.37,47.59359,-54.27349
2024-02-06 17:14:00+00:00,27.0,16.09,30.0,18.73,13.44,47.59359,-54.27349
2024-02-06 17:24:00+00:00,29.0,16.19,22.0,19.38,13.44,47.59359,-54.27349
2024-02-06 17:34:00+00:00,29.0,15.71,25.0,19.33,13.44,47.59359,-54.27349
2024-02-06 17:44:00+00:00,31.0,15.42,27.0,16.95,13.44,47.59359,-54.27349
2024-02-06 17:54:00+00:00,27.0,15.06,22.0,20.26,13.44,47.59359,-54.27349
2024-02-06 18:04:00+00:00,29.0,15.17,28.0,17.67,13.44,47.59359,-54.27349
2024-02-06 18:14:00+00:00,27.0,16.25,29.0,19.09,13.21,47.59359,-54.27349
2024-02-06 18:24:00+00:00,26.0,16.73,25.0,19.12,13.21,47.59359,-54.27349
2024-02-06 18:34:00+00:00,31.0,15.46,31.0,17.5,13.21,47.59359,-54.27349
2024-02-06 18:44:00+00:00,30.0,15.51,22.0,18.98,13.21,47.59359,-54.27349
2024-02-06 18:54:00+00:00,28.0,15.98,23.0,18.13,13.21,47.59359,-54.27349
2024-02-06 19:04:00+00:00,26.0,16.52,24.0,18.12,13.21,47.59359,-54.27349
2024-02-06 19:14:00+00:00,29.0,15.68,26.0,17.74,12.81,47.59359,-54.27349
2024-02-06 19:24:00+00:00,24.0,17.62,34.0,22.48,12.81,47.59359,-54.27349
2024-02-06 19:34:00+00:00,28.0,18.78,41.0,24.5,12.81,47.59359,-54.27349
2024-02-06 19:44:00+00:00,32.0,18.51,38.0,24.05,12.81,47.59359,-54.27349
2024-02-06 19:54:00+00:00,26.0,18.42,41.0,22.24,12.81,47.59359,-54.27349
2024-02-06 20:04:00+00:00,29.0,17.95,40.0,24.61,12.81,47.59359,-54.27349
2024-02-06 20:14:00+00:00,30.0,17.98,35.0,23.66,12.41,47.59359,-54.27349
2024-02-06 20:24:00+00:00,27.0,20.83,38.0,26.58,12.41,47.59359,-54.27349
2024-02-06 20:34:00+00:00,28.0,16.66,41.0,21.85,12.41,47.59359,-54.27349
2024-02-06 20:44:00+00:00,26.0,17.11,23.0,19.7,12.41,47.59359,-54.27349
2024-02-06 20:54:00+00:00,26.0,17.62,25.0,21.72,12.41,47.59359,-54.27349
2024-02-06 21:04:00+00:00,28.0,17.11,39.0,22.94,12.41,47.59359,-54.27349
2024-02-06 21:14:00+00:00,29.0,17.2,40.0,22.51,12.33,47.59359,-54.27349
2024-02-06 21:24:00+00:00,25.0,17.38,31.0,21.95,12.33,47.59359,-54.27349
2024-02-06 21:34:00+00:00,25.0,16.65,23.0,19.75,12.33,47.59359,-54.27349
2024-02-06 21:44:00+00:00,30.0,19.97,39.0,24.15,12.33,47.59359,-54.27349
2024-02-06 21:54:00+00:00,28.0,17.59,34.0,22.14,12.33,47.59359,-54.27349
2024-02-06 22:04:00+00:00,25.0,19.75,20.0,24.73,12.33,47.59359,-54.27349
2024-02-06 22:14:01+00:00,28.0,19.31,39.0,25.77,12.25,47.59359,-54.27349
2024-02-06 22:24:01+00:00,26.0,18.48,31.0,23.12,12.25,47.59359,-54.27349
2024-02-06 22:34:01+00:00,29.0,19.55,40.0,23.39,12.25,47.59359,-54.27349
2024-02-06 22:44:01+00:00,26.0,19.44,22.0,23.4,12.25,47.59359,-54.27349
2024-02-06 22:54:01+00:00,24.0,17.69,23.0,20.7,12.25,47.59359,-54.27349
2024-02-06 23:04:01+00:00,26.0,18.68,34.0,22.56,12.25,47.59359,-54.27349
2024-02-06 23:14:00+00:00,30.0,18.86,34.0,21.77,12.17,47.59359,-54.27349
2024-02-06 23:24:00+00:00,30.0,16.96,40.0,22.6,12.17,47.59359,-54.27349
2024-02-06 23:34:00+00:00,25.0,20.65,25.0,23.81,12.17,47.59359,-54.27349
2024-02-06 23:44:00+00:00,25.0,16.79,22.0,20.82,12.17,47.59359,-54.27349
2024-02-06 23:54:00+00:00,28.0,16.07,34.0,19.1,12.17,47.59359,-54.27349
